Time,TemperatureF,DewpointF,PressureIn,WindDirection,WindDirectionDegrees,WindSpeedMPH,WindSpeedGustMPH,Humidity,HourlyPrecipIn,Conditions,Clouds,dailyrainin,SolarRadiationWatts/m^2,SoftwareType,DateUTC
2013-03-04 00:03:00,23.3,21.1,30.24,West,264,0.0,5.0,91,0.00,,,0.00,0,Wunderground v.1.15,2013-03-04 07:03:00,
2013-03-04 00:08:00,23.2,21.0,30.24,West,265,0.0,5.0,91,0.00,,,0.00,0,Wunderground v.1.15,2013-03-04 07:08:00,
2013-03-04 00:14:00,23.1,20.9,30.24,West,265,0.0,5.0,91,0.00,,,0.00,0,Wunderground v.1.15,2013-03-04 07:14:00,
2013-03-04 00:20:00,23.1,20.9,30.24,West,265,0.0,5.0,91,0.00,,,0.00,0,Wunderground v.1.15,2013-03-04 07:20:00,
2013-03-04 00:26:00,23.0,20.8,30.25,West,265,0.0,5.0,91,0.00,,,0.00,0,Wunderground v.1.15,2013-03-04 07:26:00,
2013-03-04 00:32:00,23.0,21.0,30.25,West,265,0.0,5.0,92,0.00,,,0.00,0,Wunderground v.1.15,2013-03-04 07:32:00,
2013-03-04 00:38:00,22.9,20.9,30.25,West,265,0.0,5.0,92,0.00,,,0.00,0,Wunderground v.1.15,2013-03-04 07:38:00,
2013-03-04 00:43:00,22.9,20.7,30.25,West,264,0.0,5.0,91,0.00,,,0.00,0,Wunderground v.1.15,2013-03-04 07:43:00,
2013-03-04 00:49:00,22.8,20.6,30.26,West,265,0.0,5.0,91,0.00,,,0.00,0,Wunderground v.1.15,2013-03-04 07:49:00,
2013-03-04 00:55:00,22.8,20.8,30.26,West,264,0.0,5.0,92,0.00,,,0.00,0,Wunderground v.1.15,2013-03-04 07:55:00,
2013-03-04 01:01:00,22.7,20.7,30.26,West,264,0.0,5.0,92,0.00,,,0.00,0,Wunderground v.1.15,2013-03-04 08:01:00,
2013-03-04 01:07:00,22.7,20.7,30.26,West,265,0.0,5.0,92,0.00,,,0.00,0,Wunderground v.1.15,2013-03-04 08:07:00,
2013-03-04 01:12:00,22.7,20.7,30.26,West,264,0.0,5.0,92,0.00,,,0.00,0,Wunderground v.1.15,2013-03-04 08:12:00,
2013-03-04 01:17:00,22.7,20.7,30.27,West,264,0.0,5.0,92,0.00,,,0.00,0,Wunderground v.1.15,2013-03-04 08:17:00,
2013-03-04 01:22:00,22.7,20.7,30.27,West,265,0.0,5.0,92,0.00,,,0.00,0,Wunderground v.1.15,2013-03-04 08:22:00,
2013-03-04 01:28:00,22.7,20.7,30.27,West,265,0.0,5.0,92,0.00,,,0.00,0,Wunderground v.1.15,2013-03-04 08:28:00,
2013-03-04 01:34:00,22.7,20.7,30.27,West,265,0.0,5.0,92,0.00,,,0.00,0,Wunderground v.1.15,2013-03-04 08:34:00,
2013-03-04 01:39:00,22.6,20.6,30.28,West,264,0.0,5.0,92,0.00,,,0.00,0,Wunderground v.1.15,2013-03-04 08:39:00,
2013-03-04 01:45:00,22.6,20.4,30.28,West,264,0.0,5.0,91,0.00,,,0.00,0,Wunderground v.1.15,2013-03-04 08:45:00,
2013-03-04 01:51:00,22.5,20.3,30.28,West,265,0.0,5.0,91,0.00,,,0.00,0,Wunderground v.1.15,2013-03-04 08:51:00,
2013-03-04 01:57:00,22.4,20.2,30.29,West,264,0.0,5.0,91,0.00,,,0.00,0,Wunderground v.1.15,2013-03-04 08:57:00,
2013-03-04 02:03:00,22.4,20.2,30.29,West,264,0.0,5.0,91,0.00,,,0.00,0,Wunderground v.1.15,2013-03-04 09:03:00,
2013-03-04 02:09:00,22.3,20.1,30.29,West,265,0.0,5.0,91,0.00,,,0.00,0,Wunderground v.1.15,2013-03-04 09:09:00,
2013-03-04 02:15:00,22.2,20.0,30.29,West,265,0.0,5.0,91,0.00,,,0.00,0,Wunderground v.1.15,2013-03-04 09:15:00,
2013-03-04 02:21:00,22.1,19.9,30.30,West,264,0.0,5.0,91,0.00,,,0.00,0,Wunderground v.1.15,2013-03-04 09:21:00,
2013-03-04 02:27:00,22.0,19.8,30.30,West,265,0.0,5.0,91,0.00,,,0.00,0,Wunderground v.1.15,2013-03-04 09:27:00,
2013-03-04 02:33:00,21.9,19.7,30.30,West,265,0.0,5.0,91,0.00,,,0.00,0,Wunderground v.1.15,2013-03-04 09:33:00,
2013-03-04 02:39:00,21.9,19.7,30.30,West,264,0.0,5.0,91,0.00,,,0.00,0,Wunderground v.1.15,2013-03-04 09:39:00,
2013-03-04 02:45:00,21.8,19.6,30.30,West,264,0.0,5.0,91,0.00,,,0.00,0,Wunderground v.1.15,2013-03-04 09:45:00,
2013-03-04 02:51:00,21.8,19.8,30.30,West,265,0.0,5.0,92,0.00,,,0.00,0,Wunderground v.1.15,2013-03-04 09:51:00,
2013-03-04 02:57:00,21.7,19.5,30.31,West,264,0.0,5.0,91,0.00,,,0.00,0,Wunderground v.1.15,2013-03-04 09:57:00,
2013-03-04 03:02:00,21.7,19.5,30.31,West,264,0.0,5.0,91,0.00,,,0.00,0,Wunderground v.1.15,2013-03-04 10:02:00,
2013-03-04 03:08:00,21.6,19.6,30.31,West,264,0.0,5.0,92,0.00,,,0.00,0,Wunderground v.1.15,2013-03-04 10:08:00,
2013-03-04 03:14:00,21.6,19.6,30.31,West,264,0.0,5.0,92,0.00,,,0.00,0,Wunderground v.1.15,2013-03-04 10:14:00,
2013-03-04 03:20:00,21.5,19.5,30.31,West,264,0.0,5.0,92,0.00,,,0.00,0,Wunderground v.1.15,2013-03-04 10:20:00,
2013-03-04 03:26:00,21.5,19.5,30.32,West,264,0.0,5.0,92,0.00,,,0.00,0,Wunderground v.1.15,2013-03-04 10:26:00,
2013-03-04 03:32:00,21.4,19.4,30.32,West,264,0.0,5.0,92,0.00,,,0.00,0,Wunderground v.1.15,2013-03-04 10:32:00,
2013-03-04 03:37:00,21.4,19.4,30.33,West,265,0.0,5.0,92,0.00,,,0.00,0,Wunderground v.1.15,2013-03-04 10:37:00,
2013-03-04 03:42:00,21.3,19.3,30.33,West,265,0.0,5.0,92,0.00,,,0.00,0,Wunderground v.1.15,2013-03-04 10:42:00,
2013-03-04 03:48:00,21.3,19.3,30.33,West,265,0.0,5.0,92,0.00,,,0.00,0,Wunderground v.1.15,2013-03-04 10:48:00,
2013-03-04 03:53:00,21.3,19.3,30.33,West,265,0.0,5.0,92,0.00,,,0.00,0,Wunderground v.1.15,2013-03-04 10:53:00,
2013-03-04 03:58:00,21.3,19.3,30.33,West,265,0.0,5.0,92,0.00,,,0.00,0,Wunderground v.1.15,2013-03-04 10:58:00,
2013-03-04 04:04:00,21.2,19.2,30.33,West,265,0.0,5.0,92,0.00,,,0.00,0,Wunderground v.1.15,2013-03-04 11:04:00,
2013-03-04 04:10:00,21.1,19.1,30.34,West,265,0.0,5.0,92,0.00,,,0.00,0,Wunderground v.1.15,2013-03-04 11:10:00,
2013-03-04 04:16:00,20.9,18.9,30.34,West,265,0.0,5.0,92,0.00,,,0.00,0,Wunderground v.1.15,2013-03-04 11:16:00,
2013-03-04 04:22:00,20.8,18.8,30.34,West,265,0.0,5.0,92,0.00,,,0.00,0,Wunderground v.1.15,2013-03-04 11:22:00,
2013-03-04 04:28:00,20.7,18.7,30.34,West,264,0.0,5.0,92,0.00,,,0.00,0,Wunderground v.1.15,2013-03-04 11:28:00,
2013-03-04 04:33:00,20.6,18.6,30.34,West,265,0.0,5.0,92,0.00,,,0.00,0,Wunderground v.1.15,2013-03-04 11:33:00,
2013-03-04 04:39:00,20.5,18.3,30.34,West,265,0.0,5.0,91,0.00,,,0.00,0,Wunderground v.1.15,2013-03-04 11:39:00,
2013-03-04 04:45:00,20.4,18.2,30.35,West,265,0.0,5.0,91,0.00,,,0.00,0,Wunderground v.1.15,2013-03-04 11:45:00,
2013-03-04 04:51:00,20.2,18.0,30.35,West,265,0.0,5.0,91,0.00,,,0.00,0,Wunderground v.1.15,2013-03-04 11:51:00,
2013-03-04 04:56:00,20.0,17.8,30.35,West,265,0.0,5.0,91,0.00,,,0.00,0,Wunderground v.1.15,2013-03-04 11:56:00,
2013-03-04 05:02:00,19.9,17.7,30.36,West,265,0.0,5.0,91,0.00,,,0.00,0,Wunderground v.1.15,2013-03-04 12:02:00,
2013-03-04 05:08:00,19.7,17.5,30.36,West,265,0.0,5.0,91,0.00,,,0.00,0,Wunderground v.1.15,2013-03-04 12:08:00,
2013-03-04 05:14:00,19.7,17.5,30.36,West,265,0.0,5.0,91,0.00,,,0.00,0,Wunderground v.1.15,2013-03-04 12:14:00,
2013-03-04 05:20:00,19.6,17.4,30.36,West,265,0.0,5.0,91,0.00,,,0.00,0,Wunderground v.1.15,2013-03-04 12:20:00,
2013-03-04 05:26:00,19.5,17.3,30.37,West,265,0.0,5.0,91,0.00,,,0.00,0,Wunderground v.1.15,2013-03-04 12:26:00,
2013-03-04 05:32:00,19.4,17.2,30.37,West,265,1.0,5.0,91,0.00,,,0.00,0,Wunderground v.1.15,2013-03-04 12:32:00,
2013-03-04 05:38:00,19.3,17.1,30.37,West,265,1.0,5.0,91,0.00,,,0.00,0,Wunderground v.1.15,2013-03-04 12:38:00,
2013-03-04 05:44:00,19.1,16.9,30.37,West,265,0.0,5.0,91,0.00,,,0.00,0,Wunderground v.1.15,2013-03-04 12:44:00,
2013-03-04 05:50:00,19.0,16.8,30.37,West,265,0.0,5.0,91,0.00,,,0.00,0,Wunderground v.1.15,2013-03-04 12:50:00,
2013-03-04 05:55:00,18.8,16.6,30.37,West,265,1.0,5.0,91,0.00,,,0.00,0,Wunderground v.1.15,2013-03-04 12:55:00,
2013-03-04 06:00:00,18.7,16.5,30.38,West,265,1.0,1.0,91,0.00,,,0.00,0,Wunderground v.1.15,2013-03-04 13:00:00,
2013-03-04 06:06:00,18.6,16.4,30.38,West,265,0.0,5.0,91,0.00,,,0.00,0,Wunderground v.1.15,2013-03-04 13:06:00,
2013-03-04 06:12:00,18.5,16.3,30.38,West,265,0.0,5.0,91,0.00,,,0.00,0,Wunderground v.1.15,2013-03-04 13:12:00,
2013-03-04 06:18:00,18.5,16.3,30.38,West,265,1.0,5.0,91,0.00,,,0.00,0,Wunderground v.1.15,2013-03-04 13:18:00,
2013-03-04 06:24:00,18.6,16.7,30.39,West,265,0.0,5.0,92,0.00,,,0.00,0,Wunderground v.1.15,2013-03-04 13:24:00,
2013-03-04 06:30:00,18.6,16.7,30.38,West,265,0.0,5.0,92,0.00,,,0.00,0,Wunderground v.1.15,2013-03-04 13:30:00,
2013-03-04 06:36:00,18.7,16.8,30.39,West,265,0.0,5.0,92,0.00,,,0.00,0,Wunderground v.1.15,2013-03-04 13:36:00,
2013-03-04 06:42:00,18.7,16.8,30.39,West,265,0.0,5.0,92,0.00,,,0.00,0,Wunderground v.1.15,2013-03-04 13:42:00,
2013-03-04 06:48:00,18.7,16.8,30.39,West,265,0.0,5.0,92,0.00,,,0.00,0,Wunderground v.1.15,2013-03-04 13:48:00,
2013-03-04 06:54:00,18.7,16.8,30.40,West,265,0.0,5.0,92,0.00,,,0.00,0,Wunderground v.1.15,2013-03-04 13:54:00,
2013-03-04 07:00:00,18.7,16.8,30.40,West,265,0.0,5.0,92,0.00,,,0.00,0,Wunderground v.1.15,2013-03-04 14:00:00,
2013-03-04 07:05:00,18.8,16.9,30.40,West,265,0.0,5.0,92,0.00,,,0.00,0,Wunderground v.1.15,2013-03-04 14:05:00,
2013-03-04 07:11:00,18.8,16.9,30.40,West,265,0.0,5.0,92,0.00,,,0.00,0,Wunderground v.1.15,2013-03-04 14:11:00,
2013-03-04 07:17:00,18.9,17.0,30.40,West,265,0.0,5.0,92,0.00,,,0.00,0,Wunderground v.1.15,2013-03-04 14:17:00,
2013-03-04 07:23:00,18.9,17.0,30.40,West,265,0.0,5.0,92,0.00,,,0.00,0,Wunderground v.1.15,2013-03-04 14:23:00,
2013-03-04 07:29:00,18.9,17.0,30.41,West,265,0.0,5.0,92,0.00,,,0.00,5,Wunderground v.1.15,2013-03-04 14:29:00,
2013-03-04 07:35:00,18.9,17.0,30.41,West,265,0.0,5.0,92,0.00,,,0.00,7,Wunderground v.1.15,2013-03-04 14:35:00,
2013-03-04 07:41:00,18.9,17.0,30.41,West,265,0.0,5.0,92,0.00,,,0.00,11,Wunderground v.1.15,2013-03-04 14:41:00,
2013-03-04 07:47:00,19.0,17.1,30.41,West,265,0.0,5.0,92,0.00,,,0.00,16,Wunderground v.1.15,2013-03-04 14:47:00,
2013-03-04 07:53:00,19.0,17.1,30.41,West,265,0.0,5.0,92,0.00,,,0.00,16,Wunderground v.1.15,2013-03-04 14:53:00,
2013-03-04 07:59:00,19.0,17.1,30.42,West,265,0.0,5.0,92,0.00,,,0.00,19,Wunderground v.1.15,2013-03-04 14:59:00,
2013-03-04 08:05:00,19.0,17.1,30.42,West,265,0.0,5.0,92,0.00,,,0.00,23,Wunderground v.1.15,2013-03-04 15:05:00,
2013-03-04 08:11:00,19.0,17.1,30.42,West,265,0.0,5.0,92,0.00,,,0.00,25,Wunderground v.1.15,2013-03-04 15:11:00,
2013-03-04 08:17:00,19.0,17.1,30.42,West,265,0.0,5.0,92,0.00,,,0.00,21,Wunderground v.1.15,2013-03-04 15:17:00,
2013-03-04 08:22:00,19.0,17.1,30.42,West,264,0.0,5.0,92,0.00,,,0.00,19,Wunderground v.1.15,2013-03-04 15:22:00,
2013-03-04 08:28:00,19.0,17.1,30.42,West,264,0.0,5.0,92,0.00,,,0.00,18,Wunderground v.1.15,2013-03-04 15:28:00,
2013-03-04 08:34:00,19.0,17.1,30.42,West,265,0.0,5.0,92,0.00,,,0.00,19,Wunderground v.1.15,2013-03-04 15:34:00,
2013-03-04 08:40:00,19.1,17.2,30.43,West,264,0.0,5.0,92,0.00,,,0.00,56,Wunderground v.1.15,2013-03-04 15:40:00,
2013-03-04 08:46:00,19.3,17.4,30.43,West,265,0.0,5.0,92,0.00,,,0.00,32,Wunderground v.1.15,2013-03-04 15:46:00,
2013-03-04 08:52:00,19.5,17.6,30.43,West,265,0.0,5.0,92,0.00,,,0.00,54,Wunderground v.1.15,2013-03-04 15:52:00,
2013-03-04 08:58:00,19.7,18.0,30.43,West,264,0.0,5.0,93,0.00,,,0.00,90,Wunderground v.1.15,2013-03-04 15:58:00,
2013-03-04 09:04:00,20.6,18.9,30.43,West,264,0.0,5.0,93,0.00,,,0.00,83,Wunderground v.1.15,2013-03-04 16:04:00,
2013-03-04 09:10:00,21.7,20.2,30.43,West,265,0.0,5.0,94,0.00,,,0.00,90,Wunderground v.1.15,2013-03-04 16:10:00,
2013-03-04 09:16:00,22.6,20.9,30.43,NNE,14,0.0,5.0,93,0.00,,,0.00,104,Wunderground v.1.15,2013-03-04 16:16:00,
2013-03-04 09:22:00,23.5,21.5,30.43,NE,42,1.0,5.0,92,0.00,,,0.00,146,Wunderground v.1.15,2013-03-04 16:22:00,
2013-03-04 09:28:00,24.2,22.0,30.43,NE,43,1.0,5.0,91,0.00,,,0.00,179,Wunderground v.1.15,2013-03-04 16:28:00,
2013-03-04 09:34:00,25.0,22.5,30.43,NE,43,0.0,5.0,90,0.00,,,0.00,199,Wunderground v.1.15,2013-03-04 16:34:00,
2013-03-04 09:40:00,25.7,22.4,30.43,ENE,57,1.0,1.0,87,0.00,,,0.00,262,Wunderground v.1.15,2013-03-04 16:40:00,
2013-03-04 09:45:00,26.2,22.3,30.44,ENE,59,1.0,5.0,85,0.00,,,0.00,438,Wunderground v.1.15,2013-03-04 16:45:00,
2013-03-04 09:51:00,26.7,22.2,30.44,ENE,59,1.0,5.0,83,0.00,,,0.01,371,Wunderground v.1.15,2013-03-04 16:51:00,
2013-03-04 09:57:00,27.1,22.3,30.44,ENE,65,1.0,5.0,82,0.08,,,0.02,403,Wunderground v.1.15,2013-03-04 16:57:00,
2013-03-04 10:03:00,27.6,22.5,30.44,ENE,76,1.0,5.0,81,0.08,,,0.02,396,Wunderground v.1.15,2013-03-04 17:03:00,
2013-03-04 10:09:00,28.1,22.4,30.45,SE,137,2.0,5.0,79,0.08,,,0.03,410,Wunderground v.1.15,2013-03-04 17:09:00,
2013-03-04 10:15:00,28.6,22.3,30.45,SE,137,2.0,5.0,77,0.06,,,0.03,429,Wunderground v.1.15,2013-03-04 17:15:00,
2013-03-04 10:21:00,28.9,22.3,30.45,NE,55,1.0,5.0,76,0.05,,,0.04,436,Wunderground v.1.15,2013-03-04 17:21:00,
2013-03-04 10:27:00,29.3,22.7,30.45,NNE,13,1.0,5.0,76,0.05,,,0.04,461,Wunderground v.1.15,2013-03-04 17:27:00,
2013-03-04 10:33:00,30.2,22.9,30.45,SSE,161,1.0,5.0,74,0.05,,,0.05,496,Wunderground v.1.15,2013-03-04 17:33:00,
2013-03-04 10:39:00,31.0,23.0,30.45,SE,132,1.0,5.0,72,0.05,,,0.05,524,Wunderground v.1.15,2013-03-04 17:39:00,
2013-03-04 10:45:00,31.3,23.0,30.45,ENE,75,1.0,5.0,71,0.04,,,0.05,545,Wunderground v.1.15,2013-03-04 17:45:00,
2013-03-04 10:51:00,31.2,22.5,30.45,ENE,60,2.0,2.0,70,0.00,,,0.05,202,Wunderground v.1.15,2013-03-04 17:51:00,
2013-03-04 10:57:00,31.0,22.0,30.45,ESE,113,2.0,5.0,69,0.00,,,0.06,213,Wunderground v.1.15,2013-03-04 17:57:00,
2013-03-04 11:02:00,30.3,21.7,30.45,ESE,113,1.0,5.0,70,0.00,,,0.06,169,Wunderground v.1.15,2013-03-04 18:02:00,
2013-03-04 11:08:00,29.7,21.4,30.45,ESE,113,1.0,5.0,71,0.00,,,0.06,142,Wunderground v.1.15,2013-03-04 18:08:00,
2013-03-04 11:14:00,29.1,21.2,30.45,ESE,113,1.0,5.0,72,0.00,,,0.06,167,Wunderground v.1.15,2013-03-04 18:14:00,
2013-03-04 11:20:00,29.0,20.4,30.45,ESE,113,1.0,1.0,70,0.00,,,0.06,188,Wunderground v.1.15,2013-03-04 18:20:00,
2013-03-04 11:25:00,29.1,20.9,30.45,ESE,113,0.0,5.0,71,0.00,,,0.06,199,Wunderground v.1.15,2013-03-04 18:25:00,
2013-03-04 11:30:00,28.8,20.9,30.45,ESE,113,0.0,5.0,72,0.00,,,0.06,195,Wunderground v.1.15,2013-03-04 18:30:00,
2013-03-04 11:32:00,28.8,20.9,30.45,ESE,113,0.0,5.0,72,0.00,,,0.06,202,Wunderground v.1.15,2013-03-04 18:32:00,
2013-03-04 11:37:00,28.9,21.0,30.45,ESE,113,0.0,5.0,72,0.00,,,0.06,200,Wunderground v.1.15,2013-03-04 18:37:00,
2013-03-04 11:43:00,29.2,21.6,30.45,ESE,113,0.0,5.0,73,0.00,,,0.06,185,Wunderground v.1.15,2013-03-04 18:43:00,
2013-03-04 11:49:00,29.4,21.5,30.45,ESE,113,0.0,5.0,72,0.00,,,0.06,163,Wunderground v.1.15,2013-03-04 18:49:00,
2013-03-04 11:55:00,29.3,20.4,30.46,ESE,113,0.0,5.0,69,0.00,,,0.06,139,Wunderground v.1.15,2013-03-04 18:55:00,
2013-03-04 12:00:00,29.2,20.6,30.46,ESE,113,0.0,5.0,70,0.00,,,0.06,127,Wunderground v.1.15,2013-03-04 19:00:00,
2013-03-04 12:03:00,29.2,19.6,30.46,ESE,113,0.0,5.0,67,0.00,,,0.06,125,Wunderground v.1.15,2013-03-04 19:03:00,
2013-03-04 12:08:00,28.9,19.3,30.46,ESE,113,1.0,5.0,67,0.00,,,0.06,118,Wunderground v.1.15,2013-03-04 19:08:00,
2013-03-04 12:13:00,28.7,19.8,30.46,ESE,113,1.0,5.0,69,0.00,,,0.06,118,Wunderground v.1.15,2013-03-04 19:13:00,
2013-03-04 12:19:00,28.5,20.0,30.46,ESE,113,0.0,5.0,70,0.00,,,0.06,135,Wunderground v.1.15,2013-03-04 19:19:00,
2013-03-04 12:25:00,28.5,20.3,30.46,ESE,113,0.0,5.0,71,0.00,,,0.06,188,Wunderground v.1.15,2013-03-04 19:25:00,
2013-03-04 12:31:00,28.6,20.7,30.46,ENE,69,1.0,5.0,72,0.00,,,0.06,178,Wunderground v.1.15,2013-03-04 19:31:00,
2013-03-04 12:37:00,28.8,20.2,30.46,ENE,69,1.0,5.0,70,0.00,,,0.06,163,Wunderground v.1.15,2013-03-04 19:37:00,
2013-03-04 12:42:00,28.9,21.0,30.46,ENE,69,0.0,5.0,72,0.00,,,0.06,167,Wunderground v.1.15,2013-03-04 19:42:00,
2013-03-04 12:48:00,28.8,19.9,30.46,ENE,68,1.0,5.0,69,0.00,,,0.06,160,Wunderground v.1.15,2013-03-04 19:48:00,
2013-03-04 12:54:00,28.8,19.9,30.46,ENE,77,1.0,5.0,69,0.00,,,0.06,162,Wunderground v.1.15,2013-03-04 19:54:00,
2013-03-04 13:00:00,28.9,20.3,30.46,ENE,77,0.0,5.0,70,0.00,,,0.06,174,Wunderground v.1.15,2013-03-04 20:00:00,
2013-03-04 13:06:00,29.2,19.9,30.45,ENE,76,0.0,5.0,68,0.00,,,0.06,188,Wunderground v.1.15,2013-03-04 20:06:00,
2013-03-04 13:12:00,29.4,20.8,30.46,NNW,333,1.0,5.0,70,0.00,,,0.06,190,Wunderground v.1.15,2013-03-04 20:12:00,
2013-03-04 13:18:00,29.3,19.7,30.45,NE,50,1.0,5.0,67,0.00,,,0.06,188,Wunderground v.1.15,2013-03-04 20:18:00,
2013-03-04 13:24:00,29.5,18.4,30.44,East,101,1.0,5.0,63,0.00,,,0.06,204,Wunderground v.1.15,2013-03-04 20:24:00,
2013-03-04 13:29:00,29.6,17.8,30.44,South,186,1.0,5.0,61,0.00,,,0.06,192,Wunderground v.1.15,2013-03-04 20:29:00,
2013-03-04 13:35:00,29.8,18.7,30.44,ENE,60,1.0,5.0,63,0.00,,,0.06,183,Wunderground v.1.15,2013-03-04 20:35:00,
2013-03-04 13:41:00,29.9,17.7,30.44,SE,141,1.0,5.0,60,0.00,,,0.06,185,Wunderground v.1.15,2013-03-04 20:41:00,
2013-03-04 13:47:00,29.9,16.9,30.44,ENE,69,2.0,7.0,58,0.00,,,0.07,178,Wunderground v.1.15,2013-03-04 20:47:00,
2013-03-04 13:53:00,29.8,16.8,30.44,East,101,2.0,5.0,58,0.00,,,0.07,179,Wunderground v.1.15,2013-03-04 20:53:00,
2013-03-04 13:59:00,29.8,16.4,30.44,ENE,65,2.0,5.0,57,0.00,,,0.07,179,Wunderground v.1.15,2013-03-04 20:59:00,
2013-03-04 14:05:00,29.8,16.8,30.43,NE,41,1.0,5.0,58,0.00,,,0.07,185,Wunderground v.1.15,2013-03-04 21:05:00,
2013-03-04 14:11:00,29.8,17.2,30.44,South,173,1.0,5.0,59,0.00,,,0.07,199,Wunderground v.1.15,2013-03-04 21:11:00,
2013-03-04 14:17:00,29.9,17.3,30.43,ENE,67,1.0,5.0,59,0.00,,,0.07,207,Wunderground v.1.15,2013-03-04 21:17:00,
2013-03-04 14:23:00,30.1,16.7,30.43,SSE,155,2.0,5.0,57,0.00,,,0.07,206,Wunderground v.1.15,2013-03-04 21:23:00,
2013-03-04 14:29:00,29.9,16.5,30.43,ESE,110,3.0,7.0,57,0.00,,,0.07,200,Wunderground v.1.15,2013-03-04 21:29:00,
2013-03-04 14:35:00,29.9,16.9,30.43,NE,56,2.0,6.0,58,0.00,,,0.07,244,Wunderground v.1.15,2013-03-04 21:35:00,
2013-03-04 14:41:00,30.1,17.5,30.42,SE,137,1.0,5.0,59,0.00,,,0.07,211,Wunderground v.1.15,2013-03-04 21:41:00,
2013-03-04 14:46:00,30.2,17.6,30.42,ESE,121,2.0,5.0,59,0.00,,,0.07,188,Wunderground v.1.15,2013-03-04 21:46:00,
2013-03-04 14:52:00,30.2,16.8,30.42,SE,138,2.0,5.0,57,0.00,,,0.07,169,Wunderground v.1.15,2013-03-04 21:52:00,
2013-03-04 14:58:00,29.9,16.9,30.42,SE,133,2.0,6.0,58,0.00,,,0.07,183,Wunderground v.1.15,2013-03-04 21:58:00,
2013-03-04 15:04:00,29.8,16.8,30.42,NNE,19,2.0,5.0,58,0.00,,,0.07,202,Wunderground v.1.15,2013-03-04 22:04:00,
2013-03-04 15:10:00,30.0,17.0,30.42,SSW,194,3.0,5.0,58,0.00,,,0.07,294,Wunderground v.1.15,2013-03-04 22:10:00,
2013-03-04 15:16:00,30.5,17.5,30.41,SE,128,3.0,5.0,58,0.00,,,0.07,582,Wunderground v.1.15,2013-03-04 22:16:00,
2013-03-04 15:22:00,31.1,17.6,30.41,ENE,63,2.0,5.0,57,0.00,,,0.07,503,Wunderground v.1.15,2013-03-04 22:22:00,
2013-03-04 15:28:00,31.6,17.7,30.41,East,88,2.0,5.0,56,0.00,,,0.07,454,Wunderground v.1.15,2013-03-04 22:28:00,
2013-03-04 15:34:00,31.7,16.9,30.41,SW,215,2.0,5.0,54,0.00,,,0.07,236,Wunderground v.1.15,2013-03-04 22:34:00,
2013-03-04 15:40:00,31.6,17.3,30.40,South,171,3.0,3.0,55,0.00,,,0.07,83,Wunderground v.1.15,2013-03-04 22:40:00,
2013-03-04 15:46:00,31.4,17.5,30.40,SSW,196,3.0,7.0,56,0.00,,,0.07,74,Wunderground v.1.15,2013-03-04 22:46:00,
2013-03-04 15:51:00,31.1,16.8,30.40,SSE,165,3.0,5.0,55,0.00,,,0.07,67,Wunderground v.1.15,2013-03-04 22:51:00,
2013-03-04 15:57:00,30.8,16.5,30.40,ESE,121,2.0,8.0,55,0.00,,,0.07,67,Wunderground v.1.15,2013-03-04 22:57:00,
2013-03-04 16:02:00,30.7,16.8,30.40,NE,48,3.0,5.0,56,0.00,,,0.07,83,Wunderground v.1.15,2013-03-04 23:02:00,
2013-03-04 16:08:00,30.6,16.7,30.40,SE,128,2.0,8.0,56,0.00,,,0.07,118,Wunderground v.1.15,2013-03-04 23:08:00,
2013-03-04 16:14:00,30.6,17.2,30.40,South,172,2.0,5.0,57,0.00,,,0.07,146,Wunderground v.1.15,2013-03-04 23:14:00,
2013-03-04 16:20:00,30.5,16.2,30.40,WSW,242,3.0,3.0,55,0.00,,,0.07,155,Wunderground v.1.15,2013-03-04 23:20:00,
2013-03-04 16:26:00,30.5,17.1,30.40,SE,144,3.0,5.0,57,0.00,,,0.07,149,Wunderground v.1.15,2013-03-04 23:26:00,
2013-03-04 16:32:00,30.4,17.0,30.40,SSW,192,2.0,6.0,57,0.00,,,0.07,167,Wunderground v.1.15,2013-03-04 23:32:00,
2013-03-04 16:37:00,30.5,17.9,30.40,NNE,28,2.0,6.0,59,0.00,,,0.07,195,Wunderground v.1.15,2013-03-04 23:37:00,
2013-03-04 16:43:00,30.6,17.6,30.40,South,174,2.0,5.0,58,0.00,,,0.07,114,Wunderground v.1.15,2013-03-04 23:43:00,
2013-03-04 16:49:00,30.6,18.0,30.40,NNW,337,2.0,5.0,59,0.00,,,0.07,114,Wunderground v.1.15,2013-03-04 23:49:00,
2013-03-04 16:55:00,30.6,16.7,30.40,South,185,1.0,5.0,56,0.00,,,0.07,104,Wunderground v.1.15,2013-03-04 23:55:00,
2013-03-04 17:01:00,30.5,16.7,30.40,SE,126,1.0,5.0,56,0.00,,,0.07,81,Wunderground v.1.15,2013-03-05 00:01:00,
2013-03-04 17:07:00,30.4,16.1,30.40,SE,126,1.0,5.0,55,0.00,,,0.07,67,Wunderground v.1.15,2013-03-05 00:07:00,
2013-03-04 17:13:00,30.2,16.4,30.40,SSW,192,1.0,5.0,56,0.00,,,0.07,54,Wunderground v.1.15,2013-03-05 00:13:00,
2013-03-04 17:19:00,30.1,16.7,30.40,SSW,192,1.0,5.0,57,0.00,,,0.07,47,Wunderground v.1.15,2013-03-05 00:19:00,
2013-03-04 17:25:00,30.0,17.0,30.40,SE,128,0.0,5.0,58,0.00,,,0.07,42,Wunderground v.1.15,2013-03-05 00:25:00,
2013-03-04 17:31:00,29.9,16.5,30.40,SSE,157,0.0,5.0,57,0.00,,,0.07,35,Wunderground v.1.15,2013-03-05 00:31:00,
2013-03-04 17:37:00,29.8,16.4,30.40,SSE,157,0.0,5.0,57,0.00,,,0.07,32,Wunderground v.1.15,2013-03-05 00:37:00,
2013-03-04 17:43:00,29.7,16.7,30.40,SSE,157,0.0,5.0,58,0.00,,,0.07,23,Wunderground v.1.15,2013-03-05 00:43:00,
2013-03-04 17:49:00,29.6,17.8,30.40,SSE,157,0.0,5.0,61,0.00,,,0.07,18,Wunderground v.1.15,2013-03-05 00:49:00,
2013-03-04 17:54:00,29.5,16.9,30.40,SSE,157,0.0,5.0,59,0.00,,,0.07,16,Wunderground v.1.15,2013-03-05 00:54:00,
2013-03-04 18:00:00,29.3,17.1,30.40,SSE,157,0.0,5.0,60,0.00,,,0.07,12,Wunderground v.1.15,2013-03-05 01:00:00,
2013-03-04 18:06:00,29.2,17.0,30.40,SSE,157,0.0,5.0,60,0.00,,,0.07,9,Wunderground v.1.15,2013-03-05 01:06:00,
2013-03-04 18:12:00,29.1,16.9,30.40,SSE,157,0.0,5.0,60,0.00,,,0.07,7,Wunderground v.1.15,2013-03-05 01:12:00,
2013-03-04 18:18:00,29.0,17.2,30.40,East,98,0.0,5.0,61,0.00,,,0.07,5,Wunderground v.1.15,2013-03-05 01:18:00,
2013-03-04 18:24:00,28.8,17.0,30.39,ESE,102,0.0,5.0,61,0.00,,,0.07,0,Wunderground v.1.15,2013-03-05 01:24:00,
2013-03-04 18:30:00,28.6,17.2,30.39,ESE,102,0.0,5.0,62,0.00,,,0.07,0,Wunderground v.1.15,2013-03-05 01:30:00,
2013-03-04 18:36:00,28.4,17.0,30.39,ESE,102,0.0,5.0,62,0.00,,,0.07,0,Wunderground v.1.15,2013-03-05 01:36:00,
2013-03-04 18:42:00,28.1,18.5,30.39,ESE,102,0.0,5.0,67,0.00,,,0.07,0,Wunderground v.1.15,2013-03-05 01:42:00,
2013-03-04 18:48:00,27.9,19.4,30.39,ESE,102,0.0,5.0,70,0.00,,,0.07,0,Wunderground v.1.15,2013-03-05 01:48:00,
2013-03-04 18:54:00,27.6,19.1,30.39,ESE,102,0.0,5.0,70,0.00,,,0.07,0,Wunderground v.1.15,2013-03-05 01:54:00,
2013-03-04 19:00:00,27.4,19.6,30.39,ESE,102,0.0,5.0,72,0.00,,,0.07,0,Wunderground v.1.15,2013-03-05 02:00:00,
2013-03-04 19:06:00,27.2,20.0,30.39,ESE,102,0.0,5.0,74,0.00,,,0.07,0,Wunderground v.1.15,2013-03-05 02:06:00,
2013-03-04 19:12:00,27.0,20.4,30.39,ESE,102,0.0,5.0,76,0.00,,,0.07,0,Wunderground v.1.15,2013-03-05 02:12:00,
2013-03-04 19:17:00,26.8,20.2,30.39,ESE,102,0.0,5.0,76,0.00,,,0.07,0,Wunderground v.1.15,2013-03-05 02:17:00,
2013-03-04 19:23:00,26.7,20.5,30.38,ESE,102,0.0,5.0,77,0.00,,,0.07,0,Wunderground v.1.15,2013-03-05 02:23:00,
2013-03-04 19:29:00,26.5,20.3,30.38,ESE,102,0.0,5.0,77,0.00,,,0.07,0,Wunderground v.1.15,2013-03-05 02:29:00,
2013-03-04 19:35:00,26.3,20.1,30.38,ESE,102,0.0,5.0,77,0.00,,,0.07,0,Wunderground v.1.15,2013-03-05 02:35:00,
2013-03-04 19:41:00,26.2,20.0,30.38,ESE,102,0.0,5.0,77,0.00,,,0.07,0,Wunderground v.1.15,2013-03-05 02:41:00,
2013-03-04 19:47:00,26.0,20.1,30.38,ESE,102,0.0,5.0,78,0.00,,,0.07,0,Wunderground v.1.15,2013-03-05 02:47:00,
2013-03-04 19:53:00,25.7,20.1,30.38,ESE,102,0.0,5.0,79,0.00,,,0.07,0,Wunderground v.1.15,2013-03-05 02:53:00,
2013-03-04 19:59:00,25.4,19.2,30.38,ESE,102,0.0,5.0,77,0.00,,,0.07,0,Wunderground v.1.15,2013-03-05 02:59:00,
2013-03-04 20:05:00,24.9,18.7,30.38,ESE,102,0.0,5.0,77,0.00,,,0.07,0,Wunderground v.1.15,2013-03-05 03:05:00,
2013-03-04 20:11:00,24.5,18.9,30.38,ESE,102,0.0,5.0,79,0.00,,,0.07,0,Wunderground v.1.15,2013-03-05 03:11:00,
2013-03-04 20:16:00,24.2,18.9,30.38,ESE,102,0.0,5.0,80,0.00,,,0.07,0,Wunderground v.1.15,2013-03-05 03:16:00,
2013-03-04 20:22:00,23.8,18.5,30.38,ESE,102,0.0,5.0,80,0.00,,,0.07,0,Wunderground v.1.15,2013-03-05 03:22:00,
2013-03-04 20:28:00,23.4,18.7,30.37,ESE,102,0.0,5.0,82,0.00,,,0.07,0,Wunderground v.1.15,2013-03-05 03:28:00,
2013-03-04 20:34:00,23.1,18.1,30.37,ESE,102,0.0,5.0,81,0.00,,,0.07,0,Wunderground v.1.15,2013-03-05 03:34:00,
2013-03-04 20:39:00,22.8,17.8,30.37,ESE,102,0.0,5.0,81,0.00,,,0.07,0,Wunderground v.1.15,2013-03-05 03:39:00,
2013-03-04 20:45:00,22.5,17.8,30.36,ESE,102,0.0,5.0,82,0.00,,,0.07,0,Wunderground v.1.15,2013-03-05 03:45:00,
2013-03-04 20:51:00,22.2,17.3,30.36,ESE,102,0.0,5.0,81,0.00,,,0.07,0,Wunderground v.1.15,2013-03-05 03:51:00,
2013-03-04 20:57:00,21.7,17.1,30.36,ESE,102,1.0,5.0,82,0.00,,,0.07,0,Wunderground v.1.15,2013-03-05 03:57:00,
2013-03-04 21:02:00,21.3,16.9,30.35,ESE,102,1.0,5.0,83,0.00,,,0.07,0,Wunderground v.1.15,2013-03-05 04:02:00,
2013-03-04 21:08:00,20.9,16.5,30.36,ESE,102,0.0,5.0,83,0.00,,,0.07,0,Wunderground v.1.15,2013-03-05 04:08:00,
2013-03-04 21:14:00,20.6,16.3,30.35,ESE,102,0.0,5.0,83,0.00,,,0.07,0,Wunderground v.1.15,2013-03-05 04:14:00,
2013-03-04 21:20:00,20.4,16.1,30.35,ESE,102,0.0,5.0,83,0.00,,,0.07,0,Wunderground v.1.15,2013-03-05 04:20:00,
2013-03-04 21:26:00,20.2,15.9,30.35,ESE,102,0.0,5.0,83,0.00,,,0.07,0,Wunderground v.1.15,2013-03-05 04:26:00,
2013-03-04 21:32:00,19.8,15.5,30.35,ESE,102,0.0,5.0,83,0.00,,,0.07,0,Wunderground v.1.15,2013-03-05 04:32:00,
2013-03-04 21:38:00,19.7,15.6,30.35,ESE,102,0.0,5.0,84,0.00,,,0.07,0,Wunderground v.1.15,2013-03-05 04:38:00,
2013-03-04 21:44:00,19.4,15.4,30.35,ESE,102,0.0,5.0,84,0.00,,,0.07,0,Wunderground v.1.15,2013-03-05 04:44:00,
2013-03-04 21:50:00,19.2,15.4,30.36,ESE,102,0.0,5.0,85,0.00,,,0.07,0,Wunderground v.1.15,2013-03-05 04:50:00,
2013-03-04 21:55:00,19.0,15.2,30.36,ESE,102,0.0,5.0,85,0.00,,,0.07,0,Wunderground v.1.15,2013-03-05 04:55:00,
2013-03-04 22:00:00,18.8,15.3,30.36,ESE,102,0.0,5.0,86,0.00,,,0.07,0,Wunderground v.1.15,2013-03-05 05:00:00,
2013-03-04 22:01:00,18.8,15.3,30.35,ESE,102,0.0,5.0,86,0.00,,,0.07,0,Wunderground v.1.15,2013-03-05 05:01:00,
2013-03-04 22:03:00,18.8,15.3,30.36,ESE,102,0.0,5.0,86,0.00,,,0.07,0,Wunderground v.1.15,2013-03-05 05:03:00,
2013-03-04 22:06:00,18.7,15.2,30.36,ESE,102,0.0,5.0,86,0.00,,,0.07,0,Wunderground v.1.15,2013-03-05 05:06:00,
2013-03-04 22:11:00,18.5,15.0,30.36,ESE,102,0.0,5.0,86,0.00,,,0.07,0,Wunderground v.1.15,2013-03-05 05:11:00,
2013-03-04 22:16:00,18.4,15.2,30.36,ESE,102,0.0,5.0,87,0.00,,,0.07,0,Wunderground v.1.15,2013-03-05 05:16:00,
2013-03-04 22:22:00,18.3,15.1,30.36,ESE,102,0.0,5.0,87,0.00,,,0.07,0,Wunderground v.1.15,2013-03-05 05:22:00,
2013-03-04 22:28:00,18.2,15.0,30.36,ESE,102,0.0,5.0,87,0.00,,,0.07,0,Wunderground v.1.15,2013-03-05 05:28:00,
2013-03-04 22:34:00,18.2,15.0,30.36,ESE,102,0.0,5.0,87,0.00,,,0.07,0,Wunderground v.1.15,2013-03-05 05:34:00,
2013-03-04 22:40:00,18.1,14.9,30.35,ESE,102,0.0,5.0,87,0.00,,,0.07,0,Wunderground v.1.15,2013-03-05 05:40:00,
2013-03-04 22:46:00,18.0,14.8,30.35,ESE,102,0.0,5.0,87,0.00,,,0.07,0,Wunderground v.1.15,2013-03-05 05:46:00,
2013-03-04 22:52:00,17.9,14.7,30.35,ESE,102,1.0,5.0,87,0.00,,,0.07,0,Wunderground v.1.15,2013-03-05 05:52:00,
2013-03-04 22:58:00,17.8,14.8,30.35,ESE,102,0.0,5.0,88,0.00,,,0.07,0,Wunderground v.1.15,2013-03-05 05:58:00,
2013-03-04 23:04:00,17.8,14.8,30.35,ESE,102,0.0,5.0,88,0.00,,,0.07,0,Wunderground v.1.15,2013-03-05 06:04:00,
2013-03-04 23:10:00,17.7,14.8,30.34,ESE,102,1.0,5.0,88,0.00,,,0.07,0,Wunderground v.1.15,2013-03-05 06:10:00,
2013-03-04 23:16:00,17.7,14.8,30.35,ESE,102,0.0,5.0,88,0.00,,,0.07,0,Wunderground v.1.15,2013-03-05 06:16:00,
2013-03-04 23:22:00,17.7,14.8,30.35,ESE,102,0.0,5.0,88,0.00,,,0.07,0,Wunderground v.1.15,2013-03-05 06:22:00,
2013-03-04 23:28:00,17.6,14.7,30.35,ESE,102,0.0,5.0,88,0.00,,,0.07,0,Wunderground v.1.15,2013-03-05 06:28:00,
2013-03-04 23:33:00,17.5,14.6,30.34,ESE,102,0.0,5.0,88,0.00,,,0.07,0,Wunderground v.1.15,2013-03-05 06:33:00,
2013-03-04 23:39:00,17.4,14.5,30.34,ESE,102,0.0,5.0,88,0.00,,,0.07,0,Wunderground v.1.15,2013-03-05 06:39:00,
2013-03-04 23:45:00,17.2,14.3,30.34,ESE,102,0.0,5.0,88,0.00,,,0.07,0,Wunderground v.1.15,2013-03-05 06:45:00,
2013-03-04 23:51:00,17.0,14.1,30.35,ESE,102,0.0,5.0,88,0.00,,,0.07,0,Wunderground v.1.15,2013-03-05 06:51:00,
2013-03-04 23:57:00,16.8,13.6,30.34,ESE,102,0.0,5.0,87,0.00,,,0.07,0,Wunderground v.1.15,2013-03-05 06:57:00,